User: anonymous   Login
Location: Natural Bridges National Monument
(37.6093°N, 109.9767°W)
Time: 15:16:16
(UTC-06:00)
Language:

USA 32 - Orbit

View from above orbital plane
View from above orbital plane
View from above satellite
View from above satellite

Ground track
Ground track

The orbit data is extracted from the following two-line orbital elements,

1 19460U 88078A   16091.85919902 0.00000080  00000-0  29059-4 0    01
2 19460  84.9893 118.7957 0005000 114.9947 245.0051 14.33370490    02
Epoch (UTC): 31 March 2016 20:37:14
Eccentricity: 0.0005000
inclination: 84.9893°
perigee height: 777 km
apogee height: 784 km
right ascension of ascending node: 118.7957°
argument of perigee: 114.9947°
revolutions per day: 14.33370490
mean anomaly at epoch: 245.0051°
orbit number at epoch: 0

The dashed part of the orbit path shows where the satellite is in the earth's shadow,  

DLR